Content
SEND FEEDBACK

Daily
Averages
Monthly
Summary
United States of America

ANN ARBOR, MICHIGAN


Home > North America > United States > Michigan
Elevation: 759 feet     Latitude: 42 17N     Longitude: 083 43W

WEATHER
 
SELECT A DAY
Number of Records: 203,415;   Date Range: 1/1/95 - 7/29/14
 
SHARE

PRINT THIS DATA

[ ← Previous Day ]
WEATHER ALMANAC - APRIL 10, 2014
[ Next Day → ]
[ °C ]   °F
Weather ElementAverageHighLow
Temperature54.9 °F69.1 °F (1:53 pm)41 °F (6:53 am)
Dewpoint38.9 °F46.9 °F (6:53 pm)35.1 °F (1:53 am)
Humidity56.9 %79 % (6:53 am)36 % (1:53 pm)
Barometer29.81 in29.91 in (1:53 am)29.69 in (1:53 pm)
Wind Speed14.1 mph25.3 mph (4:53 pm)
Wind Gust36.8 mph (1:53 pm)
Weather ElementAverage
Visibility10 mi
Wind DirectionWSW (236.4 °)

Weather ElementTotal
Precipitation---
Heating Degree Days10 (Base 65)
Growing Degree Days5.1 (Base 50)
Averaged from 22 records on April 10, 2014
WEATHER CONDITIONS BREAKOUT
WIND DIRECTION BREAKOUT
WEATHER BY HOUR - APRIL 10, 2014
[ °C ]   °F
Local TimeTemperatureDewpointHumidityBarometerVisibilityWind DirectionWind SpeedGust SpeedPrecipitationEventsConditions
1:53 AM46.9 °F35.1 °F63 %29.91 in10.0 miSW (220°)10.4 mphMostly Cloudy
2:53 AM48.0 °F35.1 °F61 %29.90 in10.0 miSW (220°)9.2 mphMostly Cloudy
3:53 AM46.0 °F35.1 °F66 %29.88 in10.0 miSSW (210°)8.1 mphClear
4:53 AM44.1 °F35.1 °F71 %29.87 in10.0 miSSW (200°)9.2 mphClear
5:53 AM42.1 °F35.1 °F76 %29.86 in10.0 miSSW (200°)9.2 mphClear
6:53 AM41.0 °F35.1 °F79 %29.85 in10.0 miSSW (200°)8.1 mphClear
7:53 AM43.0 °F36.0 °F76 %29.85 in10.0 miSSW (200°)10.4 mphClear
8:53 AM46.9 °F37.0 °F68 %29.84 in10.0 miSSW (200°)13.8 mphClear
10:53 AM59.0 °F37.0 °F44 %29.79 in10.0 miSSW (210°)17.3 mph27.6 mphClear
11:53 AM62.1 °F37.9 °F41 %29.76 in10.0 miSW (230°)17.3 mph31.1 mphClear
12:53 PM66.0 °F39.9 °F38 %29.71 in10.0 miSSW (210°)19.6 mph35.7 mphClear
1:53 PM69.1 °F41.0 °F36 %29.69 in10.0 miSW (230°)23.0 mph36.8 mphClear
2:53 PM66.9 °F41.0 °F39 %29.69 in10.0 miSSW (210°)21.9 mph32.2 mphClear
3:53 PM68.0 °F41.0 °F37 %29.69 in10.0 miWSW (250°)23.0 mph31.1 mphScattered Clouds
4:53 PM66.9 °F41.0 °F39 %29.71 in10.0 miWest (260°)25.3 mph28.8 mphMostly Cloudy
5:53 PM64.0 °F42.1 °F45 %29.74 in10.0 miWest (260°)21.9 mph28.8 mph0.00 inOvercast
6:53 PM57.9 °F46.9 °F67 %29.78 in10.0 miWNW (290°)18.4 mph24.2 mph0.00 inRainLight Rain
7:53 PM55.9 °F46.0 °F69 %29.81 in10.0 miWest (270°)11.5 mph0.00 inOvercast
8:53 PM55.9 °F44.1 °F64 %29.83 in10.0 miWest (270°)10.4 mphPartly Cloudy
9:53 PM55.9 °F42.1 °F60 %29.88 in10.0 miWNW (290°)10.4 mphPartly Cloudy
10:53 PM54.0 °F36.0 °F51 %29.89 in10.0 miNW (310°)5.8 mphPartly Cloudy
11:53 PM48.9 °F36.0 °F61 %29.91 in10.0 miWest (260°)5.8 mphClear
Hourly data recorded from KARB, located miles away from Ann Arbor, Michigan







STORIES FROM OUR PARTNERS